Home   Weather   Minas   Past weeks

Flag for Uruguay Past Weather in Minas, Uruguay — Yesterday and Last 2 Weeks

Now
84 °F

Sunny.


Feels Like: 88 °F
Forecast: 64 / 89 °F
Wind: 7 mph from North

Location: Capitan Corbeta

Current Time: Jan 21, 2017 at 2:47:54 pm

Latest Report: Jan 21, 2017 at 2:00 pm


Visibility: 10 mi

Pressure: 30.04 "Hg

Humidity: 62%

Dew Point: 70 °F

Location of MinasLocation

Past Weather in Minas — Graph

°F

Minas Temperature Yesterday

Maximum temperature yesterday: 84 °F (at 6:00 pm)
Minimum temperature yesterday: 68 °F (at 6:00 am)
Average temperature yesterday: 76 °F

High & Low Weather Summary for the Past Weeks

 TemperatureHumidityPressure
High91 °F (Jan 7, 2:00 pm)100% (Jan 9, 6:00 am)30.12 "Hg (Jan 9, 6:00 am)
Low55 °F (Jan 14, 6:00 am)29% (Jan 12, 5:00 pm)29.53 "Hg (Jan 9, 6:00 pm)
Average73 °F72%29.84 "Hg
* Reported Jan 6 1:00 pm — Jan 21 1:00 pm, Minas, Weather by CustomWeather, © 2017

Note: Actual official high and low records may vary slightly from our data, if they occured in-between our weather recording intervals... More about our weather records

Advertising

Minas Weather History for the Previous 24 Hours

Scroll right to see more
 ConditionsComfort  
Time TempWeatherWind HumidityBarometerVisibility
1:00 pm
Sat, Jan 21
88 °FSunny.10 mph46%30.04 "Hg10 mi
12:00 pm86 °FPassing clouds.7 mph49%30.07 "HgN/A
11:00 am84 °FPassing clouds.8 mph51%30.09 "HgN/A
10:00 am81 °FPassing clouds.5 mph58%30.09 "HgN/A
9:00 am75 °FPassing clouds.7 mph69%30.09 "HgN/A
8:00 am72 °FPassing clouds.6 mph69%30.12 "HgN/A
7:00 am68 °FSunny.8 mph83%30.09 "Hg10 mi
6:00 am68 °FSunny.8 mph83%30.07 "Hg10 mi
5:00 am68 °FClear.8 mph88%30.07 "Hg10 mi
4:00 am68 °FPassing clouds.9 mph88%30.07 "HgN/A
3:00 am70 °FPassing clouds.9 mph83%30.07 "HgN/A
2:00 am70 °FPassing clouds.10 mph83%30.07 "HgN/A
1:00 am72 °FPassing clouds.10 mph83%30.09 "HgN/A
12:00 am73 °FPassing clouds.10 mph78%30.09 "HgN/A
10:00 pm
Fri, Jan 20
75 °FClear.8 mph74%30.07 "Hg10 mi
9:00 pm75 °FPassing clouds.3 mph74%30.07 "HgN/A
8:00 pm81 °FClear.6 mph66%30.04 "Hg10 mi
7:00 pm84 °FSunny.8 mph55%30.04 "Hg10 mi
6:00 pm84 °FPassing clouds.6 mph55%30.04 "HgN/A
5:00 pm82 °FPassing clouds.8 mph58%30.07 "HgN/A
4:00 pm82 °FSunny.10 mph58%30.04 "Hg10 mi
3:00 pm81 °FSunny.10 mph70%30.07 "Hg10 mi
2:00 pm81 °FSunny.10 mph62%30.09 "Hg10 mi
Weather by CustomWeather, © 2017

See weather overviewHow to use our weather pages